Monett, MO

4:10 AM CST on December 06, 2016 (GMT -0600)
Monett

Weather History for KHFJ - March, 2013

Change the Weather History Date:

Sunday, March 31, 2013

  Actual Average (KJLN) Record (KJLN)
Temperature  
Mean Temperature 55 °F 54 °F  
Max Temperature 64 °F 65 °F 89 °F (1974)
Min Temperature 46 °F 42 °F 21 °F (1987)
Degree Days  
Heating Degree Days 10 12  
Month to date heating degree days 508  
Since 1 July heating degree days 3762  
Cooling Degree Days 0 1  
Month to date cooling degree days 9  
Year to date cooling degree days 10  
Growing Degree Days 5 (Base 50)    
Moisture  
Dew Point 44 °F    
Average Humidity 68    
Maximum Humidity 100    
Minimum Humidity 37    
Precipitation  
Precipitation 0.08 in 0.13 in 1.70 in (2008)
Month to date precipitation 3.42  
Year to date precipitation 7.77  
Sea Level Pressure  
Sea Level Pressure 29.94 in    
Wind  
Wind Speed 6 mph (NNW)    
Max Wind Speed 18 mph    
Max Gust Speed 36 mph    
Visibility 10 miles    
Events Rain    
T = Trace of Precipitation, MM = Missing Value Source: NWS Daily Summary

Daily Weather History Graph

Daily Weather History Graph

Search for Another Location

Airport or City:

Trip Planner

Search our weather history database for the weather conditions in past years. The results will help you decide how hot, cold, wet, or windy it might be!

Date:

Astronomy

Mar. 31, 2013 Rise Set
Actual Time 7:02 AM CDT 7:37 PM CDT
Civil Twilight 6:36 AM CDT 8:03 PM CDT
Nautical Twilight 6:06 AM CDT 8:34 PM CDT
Astronomical Twilight 5:34 AM CDT 9:06 PM CDT
Moon No Moon Rise 9:57 AM CDT (3/31)
Length of Visible Light 13h 27m
Length of Day
12h 34m
Waning Gibbous, 77% of the Moon is Illuminated
Mar 31
Waning Gibbous
Apr 2
Last Quarter
Apr 10
New
Apr 18
First Quarter
Apr 25
Full

Hourly Weather History & Observations

Time (CDT) Temp. Dew Point Humidity Pressure Visibility Wind Dir Wind Speed Gust Speed Precip Events Conditions
12:15 AM 50.0 °F 50.0 °F 100% 29.91 in 10.0 mi Calm Calm - N/A   Clear
12:35 AM 50.0 °F 50.0 °F 100% 29.91 in 10.0 mi East 4.6 mph - N/A   Clear
12:55 AM 50.0 °F 50.0 °F 100% 29.91 in 10.0 mi ENE 5.8 mph - N/A   Mostly Cloudy
1:15 AM 51.8 °F 50.0 °F 94% 29.90 in 10.0 mi East 4.6 mph - N/A   Scattered Clouds
1:35 AM 50.0 °F 48.2 °F 94% 29.90 in 10.0 mi East 4.6 mph - N/A   Scattered Clouds
1:55 AM 50.0 °F 50.0 °F 100% 29.91 in 10.0 mi ENE 5.8 mph - N/A   Mostly Cloudy
2:15 AM 51.8 °F 50.0 °F 94% 29.90 in 10.0 mi East 6.9 mph - N/A   Overcast
2:35 AM 51.8 °F 50.0 °F 94% 29.91 in 10.0 mi NE 4.6 mph - N/A   Overcast
2:55 AM 51.8 °F 50.0 °F 94% 29.91 in 10.0 mi ESE 4.6 mph - N/A   Overcast
3:15 AM 50.0 °F 48.2 °F 94% 29.90 in 10.0 mi Calm Calm - N/A   Mostly Cloudy
3:35 AM 50.0 °F 48.2 °F 94% 29.89 in 10.0 mi ESE 6.9 mph - N/A   Scattered Clouds
3:55 AM 50.0 °F 48.2 °F 94% 29.88 in 10.0 mi ESE 6.9 mph - N/A   Scattered Clouds
4:15 AM 50.0 °F 46.4 °F 87% 29.86 in 10.0 mi ESE 5.8 mph - N/A   Scattered Clouds
4:35 AM 48.2 °F 46.4 °F 93% 29.87 in 10.0 mi Calm Calm - N/A   Clear
4:55 AM 46.4 °F 46.4 °F 100% 29.89 in 10.0 mi Calm Calm - N/A   Scattered Clouds
5:15 AM 48.2 °F 48.2 °F 100% 29.92 in 10.0 mi WNW 6.9 mph - N/A   Overcast
5:35 AM 50.0 °F 48.2 °F 94% 29.95 in 10.0 mi NNW 18.4 mph 35.7 mph 0.01 in Rain Light Rain
5:55 AM 50.0 °F 46.4 °F 87% 29.95 in 10.0 mi North 17.3 mph 25.3 mph 0.01 in Rain Light Rain
6:15 AM 50.0 °F 46.4 °F 87% 29.99 in 10.0 mi NW 10.4 mph - 0.02 in Rain Rain
6:35 AM 48.2 °F 46.4 °F 93% 29.95 in 10.0 mi NNE 6.9 mph - 0.07 in Rain Light Rain
6:55 AM 48.2 °F 46.4 °F 93% 29.95 in 10.0 mi North 8.1 mph - 0.07 in   Mostly Cloudy
7:15 AM 48.2 °F 46.4 °F 93% 29.95 in 10.0 mi NNE 6.9 mph - N/A   Overcast
7:35 AM 48.2 °F 46.4 °F 93% 29.97 in 10.0 mi North 3.5 mph - N/A   Overcast
7:55 AM 48.2 °F 46.4 °F 93% 29.97 in 10.0 mi Calm Calm - N/A   Mostly Cloudy
8:15 AM 50.0 °F 46.4 °F 87% 29.97 in 10.0 mi Calm Calm - N/A   Scattered Clouds
8:35 AM 50.0 °F 46.4 °F 87% 29.96 in 10.0 mi North 5.8 mph - N/A   Clear
8:55 AM 50.0 °F 48.2 °F 94% 29.97 in 10.0 mi NNE 4.6 mph - N/A   Clear
9:15 AM 51.8 °F 48.2 °F 88% 29.96 in 10.0 mi NNE 8.1 mph - N/A   Clear
9:35 AM 53.6 °F 46.4 °F 77% 29.95 in 10.0 mi NNE 6.9 mph - N/A   Clear
9:55 AM 55.4 °F 46.4 °F 72% 29.96 in 10.0 mi North 9.2 mph - N/A   Clear
10:15 AM 55.4 °F 46.4 °F 72% 29.96 in 10.0 mi NNW 10.4 mph - N/A   Clear
10:35 AM 55.4 °F 46.4 °F 72% 29.96 in 10.0 mi North 10.4 mph - N/A   Clear
10:55 AM 55.4 °F 46.4 °F 72% 29.97 in 10.0 mi NNW 9.2 mph - N/A   Clear
11:15 AM 59.0 °F 44.6 °F 59% 29.97 in 10.0 mi North 10.4 mph - N/A   Clear
11:35 AM 59.0 °F 44.6 °F 59% 29.97 in 10.0 mi North 9.2 mph - N/A   Clear
11:55 AM 60.8 °F 42.8 °F 52% 29.97 in 10.0 mi NNW 11.5 mph - N/A   Clear
12:15 PM 60.8 °F 42.8 °F 52% 29.97 in 10.0 mi NNW 12.7 mph - N/A   Clear
12:35 PM 60.8 °F 41.0 °F 48% 29.98 in 10.0 mi North 8.1 mph - N/A   Clear
12:55 PM 60.8 °F 41.0 °F 48% 29.98 in 10.0 mi NNW 11.5 mph - N/A   Clear
1:15 PM 60.8 °F 37.4 °F 42% 29.98 in 10.0 mi NNW 4.6 mph - N/A   Clear
1:35 PM 62.6 °F 42.8 °F 48% 29.97 in 10.0 mi NNW 8.1 mph - N/A   Clear
1:55 PM 60.8 °F 41.0 °F 48% 29.97 in 10.0 mi NW 6.9 mph - N/A   Clear
2:15 PM 62.6 °F 37.4 °F 39% 29.97 in 10.0 mi NW 4.6 mph - N/A   Clear
2:35 PM 62.6 °F 37.4 °F 39% 29.97 in 10.0 mi North 9.2 mph - N/A   Clear
2:55 PM 62.6 °F 35.6 °F 37% 29.97 in 10.0 mi NNW 10.4 mph - N/A   Clear
3:15 PM 62.6 °F 35.6 °F 37% 29.96 in 10.0 mi NNW 6.9 mph - N/A   Clear
3:35 PM 64.4 °F 39.2 °F 40% 29.96 in 10.0 mi NNW 9.2 mph - N/A   Clear
3:55 PM 64.4 °F 41.0 °F 42% 29.95 in 10.0 mi NNW 10.4 mph - N/A   Clear
4:15 PM 64.4 °F 41.0 °F 42% 29.95 in 10.0 mi NW 12.7 mph 16.1 mph N/A   Clear
4:35 PM 64.4 °F 41.0 °F 42% 29.94 in 10.0 mi NNW 9.2 mph 16.1 mph N/A   Clear
4:55 PM 62.6 °F 41.0 °F 45% 29.94 in 10.0 mi NW 9.2 mph - N/A   Clear
5:15 PM 62.6 °F 41.0 °F 45% 29.94 in 10.0 mi NNW 9.2 mph - N/A   Clear
5:35 PM 62.6 °F 41.0 °F 45% 29.94 in 10.0 mi NNW 8.1 mph - N/A   Clear
5:55 PM 62.6 °F 41.0 °F 45% 29.93 in 10.0 mi NNW 15.0 mph - N/A   Clear
6:15 PM 62.6 °F 41.0 °F 45% 29.93 in 10.0 mi NW 12.7 mph - N/A   Clear
6:35 PM 62.6 °F 41.0 °F 45% 29.93 in 10.0 mi NW 11.5 mph - N/A   Clear
6:55 PM 60.8 °F 41.0 °F 48% 29.93 in 10.0 mi NNW 6.9 mph - N/A   Clear
7:15 PM 60.8 °F 42.8 °F 52% 29.93 in 10.0 mi NW 4.6 mph - N/A   Clear
7:35 PM 59.0 °F 41.0 °F 51% 29.93 in 10.0 mi NW 4.6 mph - N/A   Clear
7:55 PM 59.0 °F 41.0 °F 51% 29.93 in 10.0 mi NW 4.6 mph - N/A   Clear
8:15 PM 57.2 °F 41.0 °F 55% 29.94 in 10.0 mi WNW 3.5 mph - N/A   Clear
8:35 PM 57.2 °F 39.2 °F 51% 29.95 in 10.0 mi Calm Calm - N/A   Clear
9:15 PM 55.4 °F 39.2 °F 54% 29.96 in 10.0 mi NW 3.5 mph - N/A   Clear
9:35 PM 55.4 °F 37.4 °F 51% 29.96 in 10.0 mi NW 3.5 mph - N/A   Clear
9:55 PM 53.6 °F 37.4 °F 54% 29.97 in 10.0 mi Calm Calm - N/A   Clear
10:15 PM 51.8 °F 39.2 °F 62% 29.97 in 10.0 mi Calm Calm - N/A   Clear
10:35 PM 51.8 °F 37.4 °F 58% 29.98 in 10.0 mi West 3.5 mph - N/A   Clear
10:55 PM 53.6 °F 37.4 °F 54% 29.98 in 10.0 mi Calm Calm - N/A   Clear
11:15 PM 51.8 °F 37.4 °F 58% 29.98 in 10.0 mi Calm Calm - N/A   Clear
11:55 PM 50.0 °F 37.4 °F 62% 29.97 in 10.0 mi Calm Calm - N/A   Clear